Sitka, Alaska, United States (99835)
Lat: 57.05N, Lon: 135.33W
Wx Zone: AKZ023
Local Info
Past Weather Observations for Sunday, March 22, 2015

NOTE: This archive is for the closest National Weather Service station to Sitka. Information may differ from the station used for current weather conditions.

Click here for Long-term Archive

Time Weather Temperature Dewpoint Humidity Pressure Winds Precip Visibility
23:53
Clear
37°F / 3°C 32°F / 0°C 81% 29.83 in
(1010 mb)
Calm - 10SM
22:53
Clear
37°F / 3°C 32°F / 0°C 81% 29.83 in
(1010 mb)
Calm - 10SM
21:53
Clear
41°F / 5°C 36°F / 2°C 81% 29.86 in
(1011 mb)
Calm - 10SM
20:53
Clear
39°F / 4°C 30°F / -1°C 70% 29.86 in
(1011 mb)
Calm - 10SM
19:53
Clear
39°F / 4°C 32°F / 0°C 75% 29.86 in
(1011 mb)
NE 4.6 mph
(NE 7 kph)
- 10SM
18:53
Clear
43°F / 6°C 34°F / 1°C 71% 29.86 in
(1011 mb)
E 6.9 mph
(E 11 kph)
- 10SM
17:53
Clear
46°F / 8°C 34°F / 1°C 62% 29.86 in
(1011 mb)
SE 8.1 mph
(SE 13 kph)
- 10SM
16:53
Partly Cloudy
50°F / 10°C 30°F / -1°C 47% 29.89 in
(1012 mb)
Calm - 10SM
15:53
Partly Cloudy
50°F / 10°C 34°F / 1°C 54% 29.89 in
(1012 mb)
SE 11.5 mph
(SE 19 kph)
- 10SM
15:17
Clear
50°F / 10°C 34°F / 1°C 54% 29.89 in
(1012 mb)
SE 9.2 mph
(SE 15 kph)
- 10SM
14:53
Partly Cloudy
50°F / 10°C 37°F / 3°C 62% 29.89 in
(1012 mb)
W 5.8 mph
(W 9 kph)
- 10SM
13:53
Partly Cloudy
48°F / 9°C 36°F / 2°C 62% 29.92 in
(1013 mb)
NW 5.8 mph
(NW 9 kph)
- 10SM
12:53
Partly Cloudy
46°F / 8°C 37°F / 3°C 71% 29.92 in
(1013 mb)
NW 4.6 mph
(NW 7 kph)
- 10SM
11:53
Clear
46°F / 8°C 37°F / 3°C 71% 29.95 in
(1014 mb)
NNW 9.2 mph
(NNW 15 kph)
- 10SM
10:53
Partly Cloudy
45°F / 7°C 37°F / 3°C 76% 29.98 in
(1015 mb)
NNW 8.1 mph
(NNW 13 kph)
- 10SM
09:53
Clear
41°F / 5°C 37°F / 3°C 87% 29.98 in
(1015 mb)
NW 4.6 mph
(NW 7 kph)
- 10SM
08:53
Clear
39°F / 4°C 37°F / 3°C 93% 29.98 in
(1015 mb)
NNW 5.8 mph
(NNW 9 kph)
- 10SM
07:53
Partly Cloudy
37°F / 3°C 36°F / 2°C 93% 29.98 in
(1015 mb)
NNW 4.6 mph
(NNW 7 kph)
- 10SM
06:53
Partly Cloudy
34°F / 1°C 34°F / 1°C 100% 29.98 in
(1015 mb)
Calm - 10SM
05:53
Clear
36°F / 2°C 36°F / 2°C 100% 30.01 in
(1016 mb)
Calm - 9SM
04:53
Partly Cloudy
Fog And Mist
34°F / 1°C 34°F / 1°C 100% 30.01 in
(1016 mb)
Calm - 6SM
03:53
Partly Cloudy
34°F / 1°C 34°F / 1°C 100% 30.01 in
(1016 mb)
Calm - 10SM
02:53
Partly Cloudy
36°F / 2°C 34°F / 1°C 93% 30.01 in
(1016 mb)
SE 3.5 mph
(SE 6 kph)
- 10SM
01:53
Partly Cloudy
36°F / 2°C 36°F / 2°C 100% 30.01 in
(1016 mb)
Calm - 10SM
00:53
Partly Cloudy
37°F / 3°C 36°F / 2°C 93% 30.04 in
(1017 mb)
SE 3.5 mph
(SE 6 kph)
- 10SM
Time Weather Temperature Dewpoint Humidity Pressure Winds Precip Visibility


Weather for websites

WeatherForYou.com, LLC is not responsible for any damages or problems caused by this service. Current weather conditions are obtained from the closest station including government and personal stations which may have varying degrees of accuracy. Weather forecasts are derived from the NOAA NDFD. Like all things, this site belongs to Jesus Christ... He just trusts me to maintain it. If you have any questions or comments email webmaster@weatherforyou.com

Copyright © 2015, WeatherForYou.com LLC. All rights reserved.